sat.trackr.live / text

‹ back to catalog

STARLINK-34535

NORAD 64698 · 2025-142C

PAYLOAD ACTIVE UNKNOWN

§ Identity

Operator
Country
US
Launch date
2025-06-28
Launch site
AFWTR
Launch vehicle
Mass (kg)
RCS (m²)

Purposes: comms

External: N2YO · Heavens-Above · Gunter

§ Orbital elements

Epoch: 2026-09-20T09:44:25.705248Z

Period
94.14 min
Inclination
70.0009°
Eccentricity
0.0003504
Mean motion
15.29594287 rev/d
Perigee alt
474.6 km
Apogee alt
479.4 km
Semi-major
6,855.2 km
B*
1.7189e-4
RAAN
181.2444°
Arg perigee
269.7695°
Mean anomaly
90.3079°
Rev number
6,869

§ Raw data

STARLINK-345351 64698U 25142C   26263.40585307  .00004819  00000+0  17189-3 0  99982 64698  70.0009 181.2444 0003504 269.7695  90.3079 15.29594287 68690

JSON: /api/v1/satellites/64698 · /tle

For live sub-satellite position, see the globe view (requires WebGL).

§ Visibility from observer

Set your observer location to see the next 7 days of passes ≥ 10°. The values pass through the URL so the page stays shareable.

No JS? Fill the form by hand. The geolocation button needs JavaScript.